| time (UTC) | temp C | wind direction | speed KPH | gust KPH | rain 1hr cm | rain 24hr cm | rain mn cm | humidity % | barometer mb |
| 20260507212944 | 4 | 0.0 | 0.0 | 0.00 | 2.01 | 0.25 | 85 | ||
| 20260507211944 | 5 | 0.0 | 0.0 | 0.00 | 2.13 | 0.25 | 85 | ||
| 20260507210944 | 5 | 0.0 | 0.0 | 0.00 | 2.29 | 0.25 | 85 | ||
| 20260507204944 | 6 | 0.0 | 0.0 | 0.00 | 2.57 | 0.25 | 85 | ||
| 20260507203944 | 6 | 0.0 | 0.0 | 0.00 | 2.69 | 0.25 | 85 | ||
| 20260507201944 | 6 | 0.0 | 0.0 | 0.00 | 2.95 | 0.25 | 85 | ||
| 20260507200944 | 6 | 0.0 | 0.0 | 0.00 | 3.07 | 0.25 | 85 | ||
| 20260507195944 | 6 | 0.0 | 0.0 | 0.00 | 3.20 | 0.25 | 85 | ||
| 20260507194944 | 5 | 0.0 | 0.0 | 0.00 | 3.35 | 0.25 | 85 | ||
| 20260507193944 | 5 | 0.0 | 0.0 | 0.00 | 3.48 | 0.25 | 84 | ||
| 20260507192944 | 5 | 0.0 | 0.0 | 0.00 | 3.56 | 0.25 | 84 | ||
| 20260507191944 | 5 | 0.0 | 0.0 | 0.00 | 3.58 | 0.25 | 84 | ||
| 20260507190944 | 6 | 0.0 | 0.0 | 0.00 | 3.63 | 0.25 | 84 | ||
| 20260507184944 | 6 | 0.0 | 0.0 | 0.00 | 3.76 | 0.25 | 83 | ||
| 20260507182944 | 6 | 0.0 | 0.0 | 0.00 | 3.89 | 0.25 | 82 | ||
| 20260507180944 | 7 | 0.0 | 0.0 | 0.00 | 4.09 | 0.25 | 82 | ||
| 20260507174944 | 7 | 0.0 | 0.0 | 0.00 | 4.17 | 0.25 | 82 | ||
| 20260507172944 | 7 | 0.0 | 0.0 | 0.00 | 4.32 | 0.25 | 79 | ||
| 20260507170944 | 8 | 0.0 | 0.0 | 0.00 | 4.37 | 0.25 | 77 | ||
| 20260507165944 | 8 | 0.0 | 0.0 | 0.00 | 4.42 | 0.25 | 77 | ||
| 20260507164948 | 8 | 0.0 | 0.0 | 0.00 | 4.42 | 0.25 | 76 | ||
| 20260507161945 | 8 | 0.0 | 0.0 | 0.00 | 4.45 | 0.25 | 75 | ||
| 20260507155944 | 9 | 0.0 | 0.0 | 0.00 | 4.45 | 0.25 | 74 | ||
| 20260507152944 | 9 | 0.0 | 0.0 | 0.00 | 4.45 | 0.25 | 76 | ||
| 20260507151944 | 9 | 0.0 | 0.0 | 0.00 | 4.47 | 0.25 | 75 | ||
| 20260507150944 | 10 | 0.0 | 0.0 | 0.00 | 4.47 | 0.25 | 74 | ||
| 20260507145944 | 10 | 0.0 | 0.0 | 0.00 | 4.52 | 0.25 | 75 | ||
| 20260507142946 | 10 | 0.0 | 0.0 | 0.00 | 4.57 | 0.25 | 75 | ||
| 20260507141944 | 9 | 0.0 | 0.0 | 0.00 | 4.62 | 0.25 | 74 | ||
| 20260507140944 | 10 | 0.0 | 0.0 | 0.00 | 4.70 | 0.25 | 72 | ||
| 20260507134944 | 10 | 0.0 | 0.0 | 0.00 | 4.88 | 0.25 | 69 | ||
| 20260507133944 | 11 | 0.0 | 0.0 | 0.00 | 4.98 | 0.25 | 67 | ||
| 20260507132944 | 11 | 0.0 | 0.0 | 0.00 | 5.03 | 0.25 | 68 | ||
| 20260507131944 | 11 | 0.0 | 0.0 | 0.00 | 5.11 | 0.25 | 68 | ||
| 20260507130944 | 11 | 0.0 | 0.0 | 0.00 | 5.18 | 0.25 | 66 | ||
| 20260507124944 | 12 | 0.0 | 0.0 | 0.00 | 5.31 | 0.25 | 69 | ||
| 20260507124213 | 11 | 0.0 | 0.0 | 0.00 | 5.38 | 0.25 | 70 | ||
| 20260507123944 | 11 | 0.0 | 0.0 | 0.00 | 5.38 | 0.25 | 70 | ||
| 20260507122944 | 11 | 0.0 | 0.0 | 0.00 | 5.44 | 0.25 | 72 | ||
| 20260507121944 | 10 | 0.0 | 0.0 | 0.00 | 5.49 | 0.25 | 74 | ||
| 20260507120944 | 11 | 0.0 | 0.0 | 0.00 | 5.56 | 0.25 | 76 | ||
| 20260507115944 | 10 | 0.0 | 0.0 | 0.00 | 5.61 | 0.25 | 77 | ||
| 20260507114213 | 10 | 0.0 | 0.0 | 0.00 | 5.77 | 0.25 | 79 | ||
| 20260507113944 | 10 | 0.0 | 0.0 | 0.00 | 5.77 | 0.25 | 79 | ||
| 20260507112944 | 8 | 0.0 | 0.0 | 0.00 | 5.84 | 0.25 | 80 | ||
| 20260507111944 | 8 | 0.0 | 0.0 | 0.00 | 5.89 | 0.25 | 80 | ||
| 20260507110944 | 8 | 0.0 | 0.0 | 0.00 | 5.99 | 0.25 | 80 | ||
| 20260507105944 | 8 | 0.0 | 0.0 | 0.00 | 6.07 | 0.25 | 79 | ||
| 20260507104944 | 9 | 0.0 | 0.0 | 0.08 | 6.12 | 0.25 | 81 | ||
| 20260507103944 | 8 | 0.0 | 0.0 | 0.08 | 6.20 | 0.25 | 81 | ||
| 20260507102944 | 8 | 0.0 | 0.0 | 0.08 | 6.27 | 0.25 | 82 | ||
| 20260507100944 | 8 | 0.0 | 0.0 | 0.05 | 6.38 | 0.23 | 79 | ||
| 20260507093944 | 9 | 0.0 | 0.0 | 0.00 | 6.40 | 0.18 | 78 | ||
| 20260507092944 | 10 | 0.0 | 0.0 | 0.00 | 6.40 | 0.18 | 80 | ||
| 20260507091944 | 10 | 0.0 | 0.0 | 0.00 | 6.40 | 0.18 | 79 | ||
| 20260507090944 | 10 | 0.0 | 0.0 | 0.00 | 6.40 | 0.18 | 75 | ||
| 20260507085944 | 10 | 0.0 | 0.0 | 0.00 | 6.40 | 0.18 | 80 | ||
| 20260507084944 | 10 | 0.0 | 0.0 | 0.00 | 6.43 | 0.18 | 83 | ||
| 20260507083944 | 9 | 0.0 | 0.0 | 0.00 | 6.48 | 0.18 | 84 | ||
| 20260507082944 | 9 | 0.0 | 0.0 | 0.00 | 6.53 | 0.18 | 85 | ||
| 20260507081944 | 9 | 0.0 | 0.0 | 0.00 | 6.58 | 0.18 | 85 | ||
| 20260507080944 | 8 | 0.0 | 0.0 | 0.00 | 6.63 | 0.18 | 85 | ||
| 20260507074944 | 8 | 0.0 | 0.0 | 0.00 | 6.78 | 0.18 | 85 | ||
| 20260507073944 | 9 | 0.0 | 0.0 | 0.00 | 6.83 | 0.18 | 87 | ||
| 20260507072944 | 8 | 0.0 | 0.0 | 0.00 | 6.88 | 0.18 | 87 | ||
| 20260507071944 | 8 | 0.0 | 0.0 | 0.00 | 6.88 | 0.18 | 87 | ||
| 20260507070944 | 8 | 0.0 | 0.0 | 0.00 | 6.88 | 0.18 | 87 | ||
| 20260507065944 | 8 | 0.0 | 0.0 | 0.00 | 6.88 | 0.18 | 87 | ||
| 20260507064944 | 8 | 0.0 | 0.0 | 0.00 | 6.91 | 0.18 | 87 | ||
| 20260507063944 | 8 | 0.0 | 0.0 | 0.00 | 6.91 | 0.18 | 87 | ||
| 20260507062944 | 8 | 0.0 | 0.0 | 0.00 | 6.96 | 0.18 | 87 | ||
| 20260507061944 | 8 | 0.0 | 0.0 | 0.00 | 6.96 | 0.18 | 87 | ||
| 20260507055944 | 8 | 0.0 | 0.0 | 0.00 | 6.99 | 0.18 | 87 | ||
| 20260507054944 | 7 | 0.0 | 0.0 | 0.00 | 6.99 | 0.18 | 87 | ||
| 20260507051946 | 7 | 0.0 | 0.0 | 0.00 | 7.01 | 0.18 | 87 | ||
| 20260507044947 | 7 | 0.0 | 0.0 | 0.00 | 7.04 | 0.18 | 87 | ||
| 20260507043946 | 7 | 0.0 | 0.0 | 0.00 | 7.04 | 0.18 | 87 | ||
| 20260507041947 | 7 | 0.0 | 0.0 | 0.00 | 7.06 | 0.18 | 87 | ||
| 20260507035946 | 7 | 0.0 | 0.0 | 0.00 | 7.06 | 0.18 | 87 | ||
| 20260507032946 | 8 | 0.0 | 0.0 | 0.00 | 7.04 | 0.15 | 87 | ||
| 20260507031948 | 8 | 0.0 | 0.0 | 0.03 | 7.04 | 0.15 | 87 | ||
| 20260507030947 | 8 | 0.0 | 0.0 | 0.03 | 7.04 | 0.15 | 87 | ||
| 20260507025953 | 7 | 0.0 | 0.0 | 0.03 | 7.04 | 0.15 | 87 | ||
| 20260507024948 | 7 | 0.0 | 0.0 | 0.03 | 7.06 | 0.15 | 87 | ||
| 20260507023948 | 7 | 0.0 | 0.0 | 0.03 | 7.06 | 0.15 | 87 | ||
| 20260507022946 | 7 | 0.0 | 0.0 | 0.03 | 7.06 | 0.15 | 87 | ||
| 20260507021946 | 7 | 0.0 | 0.0 | 0.00 | 7.01 | 0.10 | 87 | ||
| 20260507020946 | 7 | 0.0 | 0.0 | 0.00 | 7.01 | 0.10 | 87 | ||
| 20260507014950 | 7 | 0.0 | 0.0 | 0.00 | 7.01 | 0.10 | 87 | ||
| 20260507013954 | 7 | 0.0 | 0.0 | 0.00 | 7.01 | 0.10 | 87 | ||
| 20260507012947 | 7 | 0.0 | 0.0 | 0.00 | 7.01 | 0.10 | 87 | ||
| 20260507011946 | 7 | 0.0 | 0.0 | 0.03 | 7.01 | 0.10 | 87 | ||
| 20260507010946 | 7 | 0.0 | 0.0 | 0.05 | 7.01 | 0.10 | 87 | ||
| 20260507010204 | 7 | 0.0 | 0.0 | 0.10 | 7.01 | 0.10 | 87 | ||
| 20260507005952 | 7 | 0.0 | 0.0 | 0.10 | 7.01 | 0.10 | 87 | ||
| 20260507004948 | 7 | 0.0 | 0.0 | 0.18 | 7.01 | 0.10 | 87 | ||
| 20260507003947 | 7 | 0.0 | 0.0 | 0.25 | 7.01 | 0.10 | 87 | ||
| 20260507002946 | 7 | 0.0 | 0.0 | 0.33 | 7.01 | 0.10 | 87 | ||
| 20260507001946 | 7 | 0.0 | 0.0 | 0.43 | 6.99 | 0.08 | 87 | ||
| 20260507000950 | 7 | 0.0 | 0.0 | 0.53 | 6.96 | 0.05 | 87 | ||
| 20260507000214 | 7 | 0.0 | 0.0 | 0.61 | 6.93 | 0.00 | 87 | ||
| 20260506235951 | 7 | 0.0 | 0.0 | 0.61 | 6.93 | 0.00 | 87 | ||
| 20260506234946 | 7 | 0.0 | 0.0 | 0.69 | 6.88 | 6.88 | 87 | ||
| 20260506230952 | 6 | 0.0 | 0.0 | 0.79 | 6.45 | 6.45 | 87 | ||
| 20260506225947 | 6 | 0.0 | 0.0 | 0.76 | 6.32 | 6.32 | 87 | ||
| 20260506224948 | 6 | 0.0 | 0.0 | 0.74 | 6.17 | 6.20 | 87 | ||
| 20260506221948 | 6 | 0.0 | 0.0 | 0.71 | 5.79 | 5.79 | 87 | ||
| 20260506220946 | 7 | 0.0 | 0.0 | 0.74 | 5.66 | 5.66 | 87 | ||
| 20260506215949 | 7 | 0.0 | 0.0 | 0.79 | 5.56 | 5.56 | 87 | ||
| 20260506214946 | 7 | 0.0 | 0.0 | 0.81 | 5.44 | 5.44 | 87 | ||
| 20260506213946 | 7 | 0.0 | 0.0 | 0.81 | 5.33 | 5.33 | 87 |